Weather in Voinka

Russia / Republic of Crimea     45°52′14″N   33°59′19″E
temp.,
°C
wind,
m/s
gust,
m/s
humid.,
%
clouds,
%
prec.,
mm/h
press.,
hPa
HPBL,
m
4 march, thu
thu400:00+3wnw22700 0.0 102822
03:00+2wsw22710 0.0 102722
06:00+1sw34800 0.0 102543
09:00+4sw47740 0.0 1025273
12:00+9sw68520 0.0 10231002
15:00+10sw89470 0.0 10201024
18:00+7sw7126017 0.0 1019740
21:00+5sw7147640 0.0 1018547
5 march, fri
fri500:00+5sw916790 0.0 1017526
03:00+5sw816846 0.0 1016526
06:00+5sw7148487 0.0 1015447
09:00+7sw8147786 0.0 1014478
12:00+12sw913630 0.0 1013752
15:00+14sw913550 0.0 10121048
18:00+11sw813673 0.0 1011665
21:00+8sw6118444 0.0 1013306
6 march, sat
sat600:00+7sw5108899 0.0 1013245
03:00+6wsw389298 0.0 1014177
06:00+5n489479 0.0 1015332
09:00+4n6108089 0.0 1018597
12:00+4n7860100 0.0 1020946
15:00+5nnw7836100 0.0 10211346
18:00+4nnw6846100 0.0 10241669
21:00+1nnw4104666 0.0 1026418
7 march, sun
sun700:00−1nnw48540 0.0 1029255
03:00−2nnw22590 0.0 102924
06:00−2w11560 0.0 102921
09:000wsw23420 0.0 1030284
12:00+4w46310 0.0 10291658
15:00+5w78360 0.0 10261675
18:00+4w58440 0.0 10241240
21:00+1sw410590 0.0 1023245
8 march, mon
mon800:000sw412640 0.0 1022281
03:00+1sw5127024 0.0 1020344
06:00+1sw5117755 0.0 1019279
09:00+4sw6106942 0.0 1019889
12:00+7wsw8106198 0.2 10181382
15:00+6wsw8117199 0.5 10171119
18:00+5wsw71081100 0.5 1016876
21:00+4wsw6993100 1.6 1016528